Wind_Speed
6 7 7 6 6 6 6 6 5 5 5 6 7 8 5 2 6 6 6 6 8 8 8 7 4 3 3 4 5 5 6 6 6 7 7 7 7 6 6 6 5 3 3 5 8 10 11 10 10 9 9 10 11 13 14 15 16 15 12 9 8 8 8 7 6 4 3 4 4 3 2 3 4 6 6 6 6 6 6 7 8 9 9 8 8 9 8
6 6 7 6 7 8 7 9 7 5 6 7 7 6 4 2 6 9 8 10 12 11 9 7 3 2 3 3 4 5 6 7 7 7 7 7 6 6 6 5 4 3 3 5 9 10 10 10 9 8 8 9 11 12 14 14 15 15 13 10 8 8 8 7 4 3 4 4 4 4 3 4 6 7 7 6 5 5 6 7 6 8 9 8 6 7 8
6 5 6 6 6 8 8 9 5 4 4 4 4 3 2 2 5 7 6 9 11 8 4 2 2 3 4 5 6 7 7 7 7 7 7 7 7 6 5 5 4 3 4 6 9 10 9 8 8 7 8 9 10 12 13 14 15 15 13 10 9 8 8 7 4 3 4 4 4 5 5 6 7 8 7 6 5 5 7 7 4 5 7 6 4 5 6
5 2 5 6 7 9 9 8 5 4 4 2 3 4 4 5 3 2 3 7 7 1 2 1 3 5 6 7 6 7 7 6 6 7 7 7 7 5 5 4 4 4 5 6 8 9 8 7 7 7 7 9 10 11 13 13 14 14 13 11 11 9 7 7 5 4 4 4 4 5 6 6 8 8 7 6 5 5 5 5 3 2 5 4 3 3 3
5 2 4 7 9 9 6 4 4 5 5 3 2 3 6 8 6 3 4 5 4 3 1 2 3 5 6 6 5 5 6 5 6 6 6 6 6 4 4 3 4 4 4 5 7 7 7 7 7 6 7 8 10 11 12 13 13 14 13 12 11 9 6 6 5 4 3 3 4 5 6 8 8 8 7 6 5 4 3 4 4 1 5 5 5 4 5
7 5 5 8 9 6 2 1 1 2 4 5 4 5 7 10 10 7 8 7 5 2 3 4 3 3 4 4 4 4 5 6 6 5 5 5 4 3 4 4 3 3 3 4 6 6 6 7 6 6 7 8 10 11 11 11 12 13 12 12 11 8 7 5 4 2 1 3 5 6 7 8 7 7 7 6 4 2 2 4 5 3 3 5 5 6 6
7 6 6 7 6 4 3 1 0 1 3 4 5 8 9 9 12 13 12 11 10 7 6 5 4 3 2 3 4 4 5 5 5 5 5 4 4 4 4 4 4 2 1 2 5 6 6 6 6 6 6 7 9 10 10 10 11 12 12 12 11 8 7 6 3 2 3 4 5 6 6 7 7 7 7 6 3 2 2 4 5 5 5 3 3 5 5
6 5 4 4 5 6 4 1 2 1 2 4 5 9 8 6 9 12 11 11 11 8 6 5 4 2 2 5 7 6 5 5 5 5 4 4 5 5 5 4 4 3 2 1 4 5 6 6 5 5 6 7 9 10 9 9 10 11 11 11 10 8 7 7 6 4 3 3 4 4 5 7 7 7 6 6 4 2 2 3 4 5 5 5 4 3 3
5 6 6 5 7 7 2 3 3 2 2 1 3 6 5 2 4 7 8 9 10 7 4 4 3 3 3 7 6 6 5 3 4 5 3 4 6 6 5 5 4 4 3 1 2 4 6 6 5 5 6 7 8 9 8 8 9 10 10 10 10 9 7 7 7 6 5 5 5 6 7 7 7 7 7 6 5 4 3 3 3 3 4 4 4 3 2
4 6 6 5 7 6 1 3 3 2 2 3 3 7 5 0 1 3 5 7 8 5 1 4 5 4 4 6 1 8 6 1 2 3 4 6 7 7 6 6 5 5 4 2 2 4 5 5 5 6 6 7 8 9 7 7 8 8 9 10 9 9 8 6 6 6 5 5 6 7 7 7 8 8 8 7 6 5 5 4 4 3 3 3 3 3 2
5 6 6 5 5 4 3 4 2 1 1 2 4 6 2 3 2 1 3 5 5 2 2 5 6 4 4 4 5 11 7 2 0 2 4 7 8 7 7 6 6 6 4 2 1 3 4 4 5 6 7 7 8 8 7 7 8 8 8 9 9 8 7 6 6 5 5 5 5 6 7 7 8 8 8 7 7 6 5 5 5 4 3 3 3 3 3
6 6 6 5 5 3 3 4 3 2 1 2 5 5 1 3 3 1 1 3 2 1 3 6 6 4 4 2 7 9 4 2 1 2 5 7 8 7 7 7 6 6 4 2 1 2 4 4 4 5 6 7 8 8 6 6 8 8 7 8 8 7 7 6 6 5 5 5 5 6 6 6 7 8 8 7 7 7 6 5 5 4 4 3 4 4 4
6 6 6 6 5 3 5 6 3 2 3 3 4 4 3 4 4 1 0 2 0 3 5 5 4 3 1 3 5 4 2 2 1 2 5 7 7 7 8 8 7 6 5 3 0 2 3 4 4 5 6 6 7 7 6 6 7 7 7 7 7 7 7 6 6 5 5 5 5 5 6 6 7 7 8 8 8 7 6 5 5 5 4 4 4 4 4
4 4 4 6 4 2 4 4 0 4 4 3 3 5 5 5 4 1 1 1 2 4 5 5 4 1 2 2 1 1 1 0 1 3 6 7 8 8 8 8 7 6 5 4 2 2 3 4 3 4 5 6 7 7 5 5 7 7 7 7 7 7 7 6 6 6 5 5 5 5 5 7 8 8 8 8 8 8 6 5 5 5 5 4 4 4 4
3 3 5 6 3 1 1 3 3 4 3 3 7 8 7 5 5 4 3 2 3 5 5 5 5 3 2 3 4 3 3 2 2 4 6 8 8 8 8 8 7 6 4 3 3 3 3 3 3 4 4 5 6 6 4 4 5 6 7 7 7 6 7 7 7 6 6 5 5 5 6 8 9 9 9 8 9 9 8 7 6 6 6 5 5 5 5
3 4 4 2 2 2 2 4 3 3 6 9 11 12 9 7 7 7 6 5 4 6 5 5 6 6 5 5 5 4 4 4 4 5 6 7 8 7 7 7 6 5 4 4 4 4 4 3 3 3 3 4 5 5 3 3 4 5 6 6 7 7 8 8 8 7 7 6 6 6 7 8 9 10 10 10 9 9 9 8 8 7 7 7 7 6 6
4 6 5 4 5 5 3 6 7 9 11 13 14 14 12 11 10 9 8 7 6 7 7 6 7 7 7 7 6 6 5 5 6 6 6 7 8 7 7 7 7 5 4 4 4 4 4 4 4 4 3 3 4 4 2 1 2 4 5 5 7 7 7 8 8 7 6 6 7 7 6 7 9 11 11 12 11 11 10 9 9 9 9 8 8 8 7
4 8 9 9 10 9 7 7 9 11 13 13 12 12 12 13 12 11 10 9 7 8 8 8 8 8 7 7 7 6 6 6 6 7 7 7 7 7 7 7 7 6 5 4 4 4 4 5 4 4 4 3 3 3 2 0 1 2 3 4 6 6 6 7 7 7 6 6 6 7 7 7 9 10 11 12 13 12 12 11 10 10 9 9 9 9 9
3 5 6 6 7 9 9 11 12 12 12 12 10 10 12 13 12 13 11 9 8 8 9 9 8 7 7 7 6 6 6 7 7 8 7 8 8 8 7 7 8 7 6 5 5 4 4 4 4 4 4 3 2 2 1 1 1 0 2 3 4 5 5 5 6 6 6 6 7 7 8 8 8 8 10 11 13 14 14 13 12 11 10 11 11 11 11
6 8 8 9 10 11 13 13 12 10 10 10 10 11 14 14 13 13 13 11 9 9 10 10 9 8 8 8 7 7 7 7 7 8 8 8 8 8 8 8 8 8 7 6 5 4 4 3 3 3 3 3 3 2 1 2 2 1 1 2 3 4 4 4 4 4 5 7 6 6 7 8 8 9 9 9 11 13 14 14 14 13 13 13 12 12 13
9 10 11 11 10 10 11 10 8 8 9 10 10 12 14 15 14 13 14 15 13 11 10 10 10 9 8 8 8 7 7 7 8 8 8 8 8 8 8 8 8 9 9 7 6 5 4 4 4 3 3 4 4 3 2 2 3 2 2 1 2 3 3 3 3 3 4 5 5 5 6 7 8 10 12 11 9 11 12 13 14 14 15 16 15 14 14
8 7 8 8 7 7 9 10 9 10 11 11 12 14 15 15 14 12 12 16 16 15 12 11 10 10 9 9 9 8 7 7 8 8 8 8 8 8 8 9 9 9 9 8 7 7 5 5 5 4 4 4 4 3 3 3 3 3 3 2 2 2 2 2 3 3 3 3 4 4 4 5 5 8 12 13 12 11 11 12 13 14 14 15 16 15 15
10 11 13 13 11 11 13 14 14 13 12 11 14 16 16 15 14 12 11 15 17 17 15 13 12 11 9 10 10 9 8 7 8 8 8 8 8 8 9 9 9 10 10 10 9 8 7 6 6 5 5 4 4 4 3 3 3 3 3 3 3 2 1 2 3 3 2 2 3 3 3 4 4 4 7 10 13 13 13 13 13 14 14 14 15 15 14
14 16 17 16 15 14 16 17 16 16 16 16 17 18 16 14 12 11 12 16 17 17 15 14 13 11 10 11 11 10 8 8 8 8 9 8 8 8 8 9 9 10 10 10 10 10 9 8 7 6 5 5 5 5 4 3 3 3 3 3 3 2 2 2 3 3 2 2 2 2 2 4 4 3 3 5 8 11 13 13 13 13 14 14 14 14 14
16 17 18 18 17 17 18 19 19 19 19 19 18 17 16 15 14 11 11 16 17 16 14 14 13 13 11 12 12 11 9 8 9 9 9 9 10 9 9 9 9 9 9 10 10 10 9 9 8 7 6 6 6 6 5 5 4 3 3 3 3 3 3 3 2 2 2 2 2 2 2 2 3 4 4 3 3 6 9 12 13 13 14 14 13 13 13
17 18 19 19 19 19 19 19 18 18 16 15 14 15 16 17 16 12 11 14 16 15 14 13 13 13 13 13 13 12 10 10 10 10 9 9 10 10 10 9 8 8 8 9 9 9 9 9 9 8 8 7 7 6 6 6 5 4 4 4 4 4 4 4 3 2 2 1 1 1 1 1 2 3 3 4 4 4 5 7 10 11 13 14 14 13 13
18 17 17 18 18 18 18 17 17 16 15 13 13 14 15 15 15 13 11 14 16 16 15 13 12 13 13 14 14 13 13 12 11 11 10 10 10 10 10 10 9 8 8 8 9 10 10 10 9 9 8 8 8 7 7 6 6 5 5 4 4 5 5 4 3 2 2 1 1 1 0 0 1 1 2 3 4 4 4 5 5 6 8 10 12 12 12
18 18 17 17 18 19 19 19 18 18 17 16 16 16 15 15 15 13 12 15 19 20 18 15 13 14 15 16 16 16 16 15 13 12 11 11 10 10 11 10 10 10 9 9 9 9 10 10 10 9 9 9 9 8 7 7 7 6 5 5 4 4 5 3 3 3 3 2 1 2 2 2 1 1 1 2 2 3 4 5 4 4 4 6 8 10 10
18 18 17 18 19 20 20 21 20 20 19 19 17 15 16 16 15 14 13 15 18 21 20 19 17 16 15 17 17 17 17 16 15 13 12 11 11 11 11 12 11 11 11 11 10 10 10 10 10 10 10 9 9 9 8 8 7 7 6 6 5 4 5 4 4 4 4 3 3 4 4 4 2 1 0 1 1 2 2 3 3 4 3 4 6 7 8
17 17 17 17 18 18 19 20 21 20 19 19 17 15 16 16 16 16 14 14 17 20 21 20 19 18 17 18 19 19 17 17 16 14 12 12 12 12 12 13 13 13 13 12 12 11 11 10 10 10 10 10 10 10 9 8 8 7 7 7 6 6 6 7 6 6 4 3 3 3 3 3 2 2 2 1 1 1 1 2 3 3 3 3 4 4 5
18 17 17 17 17 17 19 19 19 19 18 18 17 16 16 17 18 17 14 13 16 19 19 19 20 19 18 18 20 20 18 17 16 15 13 12 12 13 14 15 15 13 12 11 11 11 11 11 10 10 10 10 11 11 10 9 8 8 8 8 7 6 7 7 7 7 6 5 5 3 2 3 4 3 3 2 2 2 2 2 3 3 3 3 3 3 4
18 18 17 16 15 15 15 15 15 16 16 16 16 16 16 17 18 19 17 16 16 17 17 19 20 20 18 18 19 20 20 18 16 15 15 14 14 15 17 17 16 15 13 10 9 9 10 10 10 10 10 10 11 12 11 10 9 8 8 8 8 7 6 5 6 7 7 7 6 5 4 4 4 4 3 3 3 2 2 3 3 3 3 4 3 3 5
17 16 16 15 14 14 14 12 12 12 13 13 14 14 14 14 16 18 19 19 18 17 18 19 20 19 18 18 19 20 20 20 19 18 17 16 16 17 18 18 18 17 15 12 11 10 10 9 9 9 10 11 12 13 13 11 10 9 9 8 8 8 8 7 6 7 7 7 7 7 6 6 5 5 4 4 3 3 3 3 4 4 5 5 4 4 7
15 16 17 17 15 14 14 14 13 12 11 11 11 12 13 14 15 15 15 17 19 18 18 18 20 20 19 19 20 20 21 22 21 21 21 19 18 18 19 18 18 17 17 16 15 13 12 12 11 10 10 11 13 14 14 13 11 10 10 9 9 9 9 8 7 8 8 8 8 8 8 7 6 5 5 4 4 4 4 5 5 5 6 6 5 6 9
14 14 15 15 13 11 11 12 12 10 10 10 11 11 12 13 14 14 14 15 17 17 17 19 21 20 20 21 21 21 22 24 24 23 22 21 19 19 19 20 19 18 18 18 17 16 15 14 14 13 12 13 14 15 15 14 12 11 10 10 10 10 10 9 9 9 9 10 9 9 9 8 7 7 6 5 5 5 5 6 6 6 7 7 7 7 10
12 12 11 11 10 10 9 9 9 9 9 9 11 13 13 12 11 11 11 12 13 14 15 18 20 21 21 23 24 24 24 25 26 24 22 21 20 19 19 21 21 19 19 19 18 17 16 15 15 15 15 15 16 16 15 15 14 13 12 12 11 11 11 12 11 10 11 11 11 11 11 10 9 8 7 6 5 5 6 6 6 6 7 7 8 8 9
9 9 10 10 10 11 11 11 11 11 12 12 14 16 17 17 15 11 9 10 12 13 15 17 20 23 24 24 24 25 26 26 26 25 24 22 20 18 19 21 22 21 21 21 19 17 16 16 16 15 16 18 18 17 16 16 16 15 13 13 12 12 12 13 12 12 12 12 12 13 13 12 10 9 8 7 7 6 6 5 5 6 6 7 7 8 8
9 9 10 11 12 12 12 12 12 13 14 16 16 17 19 21 20 16 12 11 13 15 17 18 20 24 27 26 25 25 27 26 26 25 24 23 22 21 21 22 22 21 21 22 19 17 16 16 15 15 17 19 19 17 16 16 17 17 16 14 14 14 14 13 13 13 13 13 13 13 13 12 11 10 9 8 8 7 6 6 6 6 7 7 7 7 7
10 10 11 12 13 13 12 13 13 13 14 17 18 18 19 20 19 17 15 14 14 15 17 19 20 24 29 30 28 25 25 26 27 26 24 23 23 23 23 23 22 21 21 20 17 16 15 15 15 15 17 18 19 18 17 16 17 19 19 18 17 17 16 15 14 14 14 14 13 13 13 12 11 10 10 9 8 8 8 7 8 7 7 7 7 7 8
11 12 12 13 14 13 13 14 15 15 15 17 19 19 18 18 19 18 17 16 17 17 16 17 19 23 29 33 31 27 25 25 25 25 25 24 23 23 24 23 23 22 21 18 16 15 15 15 15 15 16 17 19 20 19 18 18 20 21 21 20 20 18 17 17 16 15 14 15 15 14 13 12 12 12 11 9 8 8 9 9 9 9 9 10 10 10
12 13 14 14 14 14 15 16 17 18 18 19 19 19 18 17 21 22 18 15 16 18 18 16 18 21 27 31 30 28 28 27 25 24 24 24 24 24 24 23 23 22 20 17 15 16 16 16 16 17 17 18 20 21 21 19 19 21 23 23 22 21 20 20 19 19 17 17 17 17 15 14 13 14 14 13 11 10 10 10 10 10 11 12 13 13 12
14 15 15 15 14 14 15 17 18 19 20 20 19 19 18 17 19 23 21 18 19 19 16 14 17 22 26 27 24 24 27 28 26 23 23 24 24 23 20 19 20 21 19 17 17 17 16 16 16 17 18 20 21 22 22 20 19 21 24 25 24 24 23 22 22 21 20 20 22 22 20 18 17 16 14 13 13 14 13 13 12 12 13 14 15 14 14
16 16 17 16 15 16 17 18 18 19 21 21 20 19 18 16 17 20 22 23 24 22 18 14 15 19 23 24 21 21 24 26 25 23 23 23 23 21 18 16 17 19 17 16 16 15 14 12 13 14 15 18 20 22 22 21 20 20 22 24 26 26 26 25 24 23 23 23 24 25 25 24 22 20 16 15 16 17 16 15 15 14 14 15 16 15 15
16 17 17 17 17 17 18 17 18 20 22 23 22 20 18 17 17 17 19 20 22 23 21 17 16 20 23 23 19 16 17 20 21 21 21 18 18 19 20 18 16 15 15 14 15 14 10 9 10 11 12 14 18 20 22 22 22 20 20 21 23 25 26 26 27 27 26 26 27 27 26 24 21 19 17 17 18 19 18 17 18 16 15 15 16 17 17
16 16 17 18 18 17 16 16 18 22 24 23 21 18 15 15 17 18 19 18 19 20 19 18 19 23 25 24 19 15 13 14 14 14 14 13 12 14 16 16 13 12 12 14 15 14 11 10 11 11 12 13 15 17 19 20 21 21 21 22 23 24 24 25 26 27 27 28 30 30 27 22 19 18 18 19 19 18 17 18 20 20 17 16 16 16 16
16 16 17 18 17 15 16 18 20 21 20 17 14 13 11 10 12 15 18 19 20 20 19 19 19 18 18 19 19 16 13 12 12 13 14 15 14 13 13 14 15 16 16 15 13 12 11 10 10 10 10 11 11 12 13 14 16 17 17 18 18 18 18 18 19 20 21 23 25 27 26 22 18 17 17 16 16 16 17 21 24 25 24 21 19 18 18
17 17 18 17 16 15 16 18 18 15 12 9 8 9 9 8 6 6 10 14 17 18 17 18 18 16 15 16 16 12 10 11 12 13 12 12 12 12 13 15 17 17 16 13 11 10 9 9 9 9 9 8 8 8 8 9 10 10 11 11 11 11 12 12 13 13 15 16 17 18 19 18 16 15 14 14 16 18 21 25 27 27 26 25 23 20 19
18 18 17 17 18 18 18 17 15 12 9 6 5 6 6 7 7 7 4 2 4 7 9 12 15 17 16 14 11 7 7 10 11 11 10 9 10 10 11 12 12 12 11 11 10 9 8 8 8 8 8 7 6 7 7 7 6 6 6 6 6 6 7 9 10 10 12 13 14 15 17 19 19 19 19 20 21 23 24 25 25 24 23 21 19 18 17
17 17 17 17 17 17 16 15 15 14 10 6 4 3 1 2 4 7 7 7 5 3 3 6 8 11 12 11 9 8 9 10 10 9 9 9 9 9 9 10 10 9 9 8 8 7 7 7 7 7 6 6 6 5 5 5 4 3 3 5 6 7 8 10 10 10 10 12 13 14 16 18 19 20 21 22 23 24 23 21 21 20 19 18 18 19 21
16 16 16 16 15 15 14 14 15 15 13 10 8 5 3 3 2 2 3 2 1 1 4 7 8 9 10 10 10 10 10 10 10 9 9 10 11 11 10 10 9 8 7 6 6 6 5 5 5 5 4 4 4 3 3 3 4 4 5 6 8 9 10 11 11 11 11 12 12 13 14 15 17 18 19 19 19 19 18 17 17 18 18 19 21 22 21
16 16 16 16 15 16 16 16 15 15 13 12 11 8 8 9 9 8 7 6 5 5 5 6 7 9 10 10 11 11 11 10 10 10 11 12 12 11 10 10 9 8 6 6 5 5 5 4 4 3 3 2 2 2 3 5 6 7 8 8 8 9 9 10 10 11 11 12 12 13 13 13 14 14 14 14 15 15 16 17 19 21 22 23 23 22 19
18 19 18 18 17 17 17 17 17 16 14 14 15 13 12 12 11 10 9 8 7 6 6 6 7 9 10 10 10 11 11 12 12 13 12 12 11 11 11 10 9 7 6 6 6 6 5 5 4 3 2 1 2 4 5 6 7 8 8 8 9 9 9 9 9 10 10 10 11 11 11 12 12 13 15 16 18 19 21 22 23 24 24 24 22 19 18
Wind_Direction
289 301 297 285 272 269 262 247 225 188 172 170 196 236 257 281 267 284 353 342 295 300 316 321 324 298 268 249 241 243 245 247 249 250 248 249 255 255 242 226 222 237 274 317 328 331 332 332 333 334 339 343 345 350 352 353 353 350 345 342 339 338 342 337 332 348 7 2 359 11 39 14 331 313 317 310 298 291 274 269 265 250 244 250 256 252 244
280 286 287 276 268 275 279 271 252 189 182 197 208 244 265 232 258 279 305 306 292 289 298 304 298 272 264 255 244 239 244 249 252 255 255 258 266 267 258 246 240 244 284 320 326 330 331 329 329 330 336 340 343 348 349 350 353 352 347 345 343 339 340 338 332 346 2 358 357 12 13 343 321 317 319 310 299 304 301 294 276 244 228 224 239 249 241
277 270 276 271 274 282 279 277 270 139 152 225 224 244 271 233 262 274 278 283 281 276 282 288 224 209 224 236 238 241 247 253 256 257 259 265 271 272 262 251 246 255 294 318 325 331 331 328 328 330 333 338 341 346 347 348 352 352 349 345 344 342 338 337 348 10 2 354 354 355 346 331 327 328 325 314 308 316 318 319 306 239 220 208 214 238 237
284 258 268 279 293 289 269 263 257 184 172 226 214 196 202 198 198 188 221 263 280 271 132 186 191 196 220 234 239 246 250 252 256 259 266 272 274 270 256 245 249 270 297 318 327 331 331 329 329 329 333 338 340 344 346 348 350 351 350 346 345 343 333 330 347 359 350 342 336 332 330 332 335 336 337 333 327 328 331 336 341 201 190 174 172 205 201
287 281 286 296 299 290 269 257 257 213 188 199 218 213 213 200 182 178 242 278 334 46 127 240 219 207 226 240 245 257 266 267 264 262 267 275 272 253 228 220 242 272 298 320 330 334 332 329 328 327 331 337 341 343 345 347 350 352 351 350 347 344 336 337 341 335 324 328 325 319 323 332 339 342 344 344 333 327 348 14 27 127 179 168 156 157 166
284 290 301 298 290 293 329 37 297 234 205 203 208 229 227 205 200 231 275 293 305 279 248 266 272 246 238 249 258 268 274 277 278 270 264 265 250 211 190 188 219 254 287 320 334 340 335 327 326 326 329 335 339 343 344 346 351 353 353 354 351 349 351 350 340 324 329 336 333 332 333 338 346 348 345 345 342 338 17 46 55 81 157 173 172 171 178
277 293 303 293 287 320 354 6 168 309 261 233 239 262 257 223 214 234 260 274 278 277 263 258 270 269 240 250 259 254 251 260 272 273 262 241 204 189 185 184 195 214 247 319 340 345 341 336 331 327 329 332 337 342 344 347 352 355 356 357 355 356 1 1 7 33 17 351 341 340 343 349 352 349 347 352 358 10 30 48 64 79 97 126 170 187 193
270 278 269 269 305 330 332 176 142 135 238 231 256 273 266 230 223 234 247 264 280 290 271 241 236 225 225 259 258 241 234 243 256 267 263 223 191 183 183 181 178 186 215 315 347 351 349 345 340 337 336 336 341 345 345 349 355 357 360 1 359 360 4 6 15 30 16 359 359 353 354 358 354 350 353 2 14 34 39 39 50 70 86 99 120 157 204
262 274 263 263 298 307 274 162 155 177 240 259 288 294 291 241 228 240 252 274 291 297 273 222 205 194 233 268 253 202 192 229 254 262 247 193 178 172 169 168 164 169 177 139 17 4 359 357 357 355 347 346 350 350 348 352 358 1 3 4 4 6 8 7 11 21 22 17 15 9 6 6 3 1 2 4 14 27 28 24 27 47 65 71 87 112 145
237 273 280 274 284 294 341 103 130 163 290 309 291 290 293 109 152 248 269 293 304 304 225 182 182 183 237 272 190 127 133 182 264 256 215 180 172 168 163 161 161 165 165 137 23 2 5 9 12 7 359 358 356 353 354 358 0 4 6 6 8 10 13 12 10 15 19 16 17 18 17 16 13 10 10 8 9 13 16 12 7 12 26 30 39 65 84
239 258 270 266 274 309 20 46 81 132 279 283 272 281 287 99 88 289 289 307 313 307 167 168 174 192 249 279 89 99 101 84 305 240 204 178 173 171 166 166 167 171 166 137 17 359 6 7 6 5 4 4 359 356 0 3 3 7 7 6 8 9 12 16 15 16 18 16 19 22 21 20 15 10 10 8 5 9 12 10 7 9 15 19 25 29 29
239 248 264 269 274 310 359 347 343 16 115 226 265 286 17 71 36 2 309 323 329 144 160 171 190 229 272 8 78 88 76 46 52 224 196 181 181 177 173 175 176 177 174 149 8 349 355 354 354 0 3 3 1 1 6 9 8 9 7 5 8 7 8 13 15 17 19 17 17 16 12 11 9 6 5 2 3 8 10 9 9 11 18 22 23 22 19
239 237 258 270 273 318 349 338 342 95 154 215 270 312 357 357 347 16 327 322 51 156 176 196 228 258 352 60 73 80 54 40 99 199 186 183 187 182 181 189 191 188 187 182 251 327 340 339 343 354 360 1 3 5 11 12 10 12 12 11 11 11 11 10 10 11 9 6 9 9 3 4 7 7 4 2 4 7 6 6 7 9 19 28 22 20 22
246 236 253 267 272 341 354 333 241 173 207 249 319 335 332 327 327 315 238 256 171 178 195 221 258 301 101 128 173 158 155 82 147 175 178 182 185 184 192 203 199 189 192 200 237 304 324 331 337 346 354 0 3 4 10 14 12 17 24 23 22 21 19 16 13 10 4 3 7 5 4 10 14 15 13 11 12 15 14 13 11 11 17 22 21 22 19
242 239 236 251 272 88 179 213 177 185 233 332 349 326 312 320 321 299 282 266 211 202 210 226 241 235 181 203 213 200 211 219 181 175 182 186 189 191 197 205 198 191 207 230 253 276 299 324 334 336 344 356 0 1 6 14 18 26 34 34 31 30 30 30 26 18 13 16 19 19 22 26 25 23 25 25 23 24 28 30 29 28 28 25 25 27 23
234 247 225 222 13 47 200 227 237 264 287 315 324 312 302 303 300 287 287 284 234 214 224 230 230 233 229 227 231 229 219 207 193 187 187 191 195 192 191 196 196 198 218 239 253 262 277 304 320 323 329 343 351 356 1 16 28 33 38 36 31 31 35 38 39 34 28 28 33 34 31 31 31 31 33 35 34 32 35 40 41 40 38 36 36 34 30
263 279 283 307 332 331 278 259 279 295 297 300 307 305 294 286 284 279 284 287 250 221 225 228 227 235 236 232 238 237 222 208 203 197 192 195 199 195 191 195 197 201 219 239 252 261 267 278 298 308 307 318 340 347 352 31 44 39 40 37 31 29 32 38 44 47 41 36 38 41 36 29 30 33 35 36 38 38 40 44 47 45 44 44 44 42 40
292 276 267 276 289 290 281 273 277 288 292 293 300 303 291 281 277 273 275 279 260 230 221 220 226 234 233 231 235 233 223 215 207 200 197 199 200 198 197 199 201 203 220 240 247 256 267 273 286 292 281 281 315 330 330 136 84 43 40 35 27 22 23 30 38 45 48 45 40 38 38 33 30 32 35 38 41 44 43 42 43 43 45 50 49 43 42
295 269 242 245 265 270 274 278 278 278 280 281 287 301 304 298 282 267 264 267 256 232 218 217 225 228 225 225 225 219 216 214 208 205 204 203 204 205 205 207 209 208 217 236 241 247 262 270 274 271 255 244 261 292 282 188 188 32 30 28 19 10 10 22 28 29 39 50 47 36 36 39 36 34 35 37 43 50 53 51 48 44 41 47 49 42 39
270 279 274 268 268 266 266 269 269 269 274 277 286 304 313 312 294 268 253 246 239 230 222 220 220 220 219 219 220 217 216 217 215 211 208 208 210 210 209 215 217 212 216 228 234 236 247 257 260 251 231 223 232 246 234 196 195 221 318 1 9 0 359 14 19 16 26 40 44 36 34 40 44 46 47 42 40 46 53 56 57 54 50 52 55 47 41
273 275 276 276 275 269 262 257 256 269 281 283 290 302 308 307 303 283 255 238 231 228 226 220 216 216 215 213 216 218 217 218 219 215 211 212 213 212 215 222 223 217 218 223 225 228 235 239 236 229 220 219 223 227 226 204 193 210 257 306 346 351 357 10 11 8 13 23 33 36 35 37 40 46 56 60 51 45 48 52 56 57 54 55 59 58 51
267 274 287 294 294 284 279 276 275 282 288 284 288 302 305 300 300 292 257 235 228 227 225 219 214 215 215 210 209 214 219 222 221 216 212 212 215 215 217 221 223 221 220 221 221 222 225 226 224 220 217 217 217 215 221 214 201 211 235 258 289 325 357 6 5 13 13 12 22 32 35 37 30 31 41 50 53 51 49 49 53 57 56 54 55 57 57
280 289 296 298 295 287 286 289 287 288 291 288 288 299 303 299 298 291 257 230 225 226 227 222 216 214 212 206 203 207 218 220 216 215 213 213 215 218 218 220 221 220 220 221 221 220 220 220 220 217 213 213 215 213 216 217 212 215 229 244 255 277 313 330 358 20 22 6 15 27 30 38 40 21 18 28 38 45 47 46 45 47 51 53 52 52 53
286 288 289 290 289 286 285 289 289 289 291 292 291 295 298 300 302 290 253 228 221 223 227 227 220 213 209 204 199 203 212 213 211 214 215 213 215 215 216 219 219 216 217 219 219 219 219 218 216 217 216 214 213 211 213 220 224 225 234 245 249 253 262 288 335 11 16 359 10 27 21 26 41 49 25 10 18 29 38 43 44 42 43 45 48 49 49
283 286 289 289 287 285 285 286 285 285 286 287 287 289 293 298 303 291 252 229 221 219 223 226 221 213 207 200 198 201 203 204 209 214 216 219 222 220 217 217 215 213 214 216 216 216 216 214 215 217 217 216 215 213 214 219 228 234 241 244 245 249 249 262 296 332 353 350 353 9 19 17 33 46 53 51 23 12 16 25 33 38 40 40 40 43 46
282 284 286 286 284 282 280 279 278 280 283 282 282 287 293 298 301 290 251 229 221 218 220 223 220 217 211 202 200 199 195 198 211 217 216 220 223 222 217 214 212 211 211 212 214 215 212 213 216 219 219 218 217 215 216 220 226 236 243 242 241 242 234 224 234 271 303 327 321 325 9 37 45 42 48 62 63 44 20 14 16 19 24 29 33 35 37
287 283 281 281 281 280 277 275 276 280 284 282 282 287 293 297 299 288 253 226 217 218 221 219 217 218 214 206 201 198 197 203 214 218 216 217 220 219 216 212 210 212 212 212 215 217 217 215 216 219 221 220 217 216 217 220 225 232 239 241 244 249 242 217 190 217 256 266 230 216 265 4 49 54 51 52 51 50 51 47 34 19 16 21 28 33 35
287 283 278 275 275 277 278 278 278 280 280 280 283 287 289 291 296 288 256 225 216 218 220 216 213 215 214 209 204 201 203 209 214 215 216 218 218 217 215 213 213 215 216 217 218 220 221 219 217 220 222 219 217 218 216 219 225 231 236 237 236 247 256 243 196 204 230 237 223 219 203 181 179 159 82 54 40 36 36 38 44 46 31 20 25 30 33
289 286 281 276 274 274 275 276 275 273 273 275 279 279 279 283 289 286 264 236 223 222 222 220 219 218 215 211 207 204 205 210 212 214 217 218 217 216 214 214 218 221 225 226 224 223 223 221 219 223 223 218 217 219 217 219 225 225 227 232 228 227 240 240 222 215 220 220 223 216 188 161 160 184 201 14 25 38 25 15 34 48 34 14 21 25 19
297 292 287 282 278 274 271 270 270 268 268 270 270 267 270 275 279 277 267 244 230 228 226 224 224 221 215 212 210 206 206 210 213 215 216 216 215 216 216 217 222 228 232 233 231 228 228 227 224 226 225 220 218 218 217 220 225 224 224 228 227 220 220 219 212 210 216 231 233 209 166 156 187 213 218 241 287 315 312 331 3 23 6 356 13 19 0
303 299 292 285 280 275 269 266 266 267 265 263 261 260 262 266 270 270 263 248 240 237 230 225 227 226 221 218 215 211 209 212 214 214 216 215 215 218 221 224 226 228 231 235 234 231 231 231 230 230 227 221 218 219 220 221 222 223 224 225 229 232 225 213 202 196 200 221 235 224 197 209 222 223 222 234 257 269 275 299 325 337 331 334 349 352 342
308 302 294 287 282 279 274 268 266 269 268 265 262 260 258 263 270 271 266 261 257 247 233 226 229 229 227 225 221 214 212 214 215 215 216 216 218 223 229 232 232 232 234 235 235 233 232 233 234 234 230 224 219 221 226 226 220 220 224 221 224 236 239 225 210 200 198 208 217 219 221 222 221 226 234 235 247 265 271 283 299 305 309 319 322 315 320
314 304 296 294 295 294 290 282 276 277 276 272 269 265 263 268 272 268 261 258 257 251 242 236 233 232 231 228 223 219 216 216 217 219 221 220 221 227 234 236 236 238 240 238 236 236 235 236 238 236 230 225 222 223 229 229 221 221 225 219 215 227 239 240 226 214 211 213 214 215 221 222 219 225 235 238 250 264 271 280 291 293 297 306 302 287 301
311 301 297 298 298 294 290 287 284 282 283 285 282 275 271 273 276 273 262 252 248 251 253 244 233 231 234 232 225 222 220 220 220 222 224 224 225 229 235 240 241 241 243 244 243 243 242 241 243 241 231 224 224 228 232 230 221 220 225 222 216 223 235 242 236 223 217 219 219 217 218 218 217 224 230 235 247 259 265 276 286 288 292 299 295 285 297
312 308 305 302 300 296 292 289 285 282 288 301 304 297 288 283 280 278 269 256 250 252 253 240 229 229 236 236 229 224 224 224 224 225 225 226 228 230 235 241 244 244 246 248 248 249 248 245 244 245 240 233 233 237 237 230 222 221 225 225 223 224 227 232 237 231 221 219 221 221 220 220 222 226 226 227 241 259 268 277 286 289 293 298 299 292 296
318 322 322 317 313 312 308 304 298 293 291 291 290 290 292 293 290 285 277 267 261 255 246 234 226 225 232 235 232 229 228 228 228 228 228 229 230 230 234 241 245 246 249 252 252 252 251 248 243 244 246 245 245 246 242 233 225 224 227 230 232 234 232 231 233 233 228 223 220 218 218 217 216 217 221 229 241 257 266 275 285 292 294 299 303 302 300
324 325 328 331 331 327 319 312 303 296 293 288 281 278 280 285 289 293 288 277 269 259 249 239 228 222 226 232 232 229 230 231 231 231 232 232 231 231 234 241 247 249 250 254 256 255 254 252 247 242 244 248 249 250 247 240 231 226 228 231 233 234 235 235 235 234 232 229 226 224 224 221 219 221 228 234 240 250 261 273 285 294 298 299 301 304 305
328 323 323 328 332 330 326 315 300 288 284 283 280 276 274 273 276 280 283 280 273 263 255 247 234 222 223 229 233 231 230 231 231 232 235 235 234 234 238 243 247 248 250 254 257 257 257 257 253 244 242 246 249 250 251 247 237 230 229 232 233 233 235 236 235 234 233 232 230 230 229 227 229 234 239 242 243 246 252 263 275 286 293 297 299 302 305
329 327 326 326 324 323 322 317 306 292 284 282 281 278 270 262 260 265 270 271 272 271 263 254 243 229 224 228 232 232 230 231 231 231 233 235 236 239 243 247 248 248 251 256 260 260 258 257 255 248 243 244 247 249 250 248 242 236 233 234 237 241 242 239 236 235 235 233 232 233 233 233 236 238 239 240 244 248 257 270 280 283 286 292 296 300 304
330 328 329 328 324 321 319 315 310 304 299 295 293 290 277 257 247 253 263 264 264 268 265 254 243 231 225 227 232 234 233 232 232 230 232 236 239 241 245 248 249 250 253 258 262 262 259 256 254 250 245 242 243 246 248 248 245 240 235 234 238 243 244 242 241 239 235 233 233 234 235 237 240 242 245 247 250 253 263 276 283 285 286 292 297 302 304
330 328 327 325 322 322 321 318 313 310 307 303 298 294 287 266 247 245 251 257 259 262 266 263 249 232 224 226 232 237 239 238 235 232 233 236 238 242 245 248 250 251 250 248 250 255 258 258 255 251 246 243 242 242 244 245 245 239 233 231 235 240 242 244 246 245 240 238 239 240 240 241 242 245 249 251 249 250 261 273 279 279 281 288 294 298 300
329 328 326 323 321 320 320 318 315 312 310 308 301 292 285 275 256 244 242 251 260 262 262 260 246 234 230 232 237 242 245 245 242 238 235 235 238 243 245 244 245 248 245 239 240 249 259 264 261 254 248 244 242 241 241 242 244 241 235 233 235 238 241 245 248 250 250 250 250 249 247 244 243 244 248 248 246 251 266 281 285 280 277 282 288 291 294
326 326 324 321 319 318 317 316 315 312 311 312 308 293 278 271 264 252 246 250 256 255 249 243 238 236 239 241 242 245 249 249 246 241 238 237 238 238 232 225 232 241 242 238 243 253 263 268 265 259 250 244 240 239 238 237 240 242 241 239 239 241 244 246 250 253 256 258 259 256 252 249 247 248 246 243 245 255 270 284 288 283 277 277 281 284 288
318 321 321 319 317 317 316 313 313 313 312 312 309 297 275 260 257 254 249 249 252 251 247 243 241 240 241 243 244 244 244 243 241 241 240 237 233 229 225 222 226 231 232 236 246 254 259 261 262 262 257 249 243 239 234 231 232 237 242 244 246 247 249 250 253 256 258 259 260 259 255 250 248 246 242 241 249 260 273 284 288 285 276 272 274 279 283
310 315 319 319 317 316 315 313 313 314 313 312 310 302 282 259 252 251 249 249 253 252 245 236 233 236 241 243 241 234 227 225 227 225 215 200 195 204 214 219 223 232 244 252 253 250 250 254 258 260 259 254 249 243 237 233 233 236 242 247 250 252 252 253 256 258 258 258 258 258 255 249 246 247 247 249 256 265 274 282 284 282 274 269 271 275 277
303 308 316 320 317 313 314 317 319 316 312 309 313 318 312 289 263 251 246 245 248 250 244 235 232 237 242 237 228 216 202 196 200 201 195 191 195 206 221 235 248 260 266 263 251 239 241 250 254 254 251 247 243 242 240 238 239 243 248 254 258 260 261 262 265 266 265 265 264 262 258 253 252 254 254 255 262 270 274 275 276 277 276 274 273 272 274
301 304 311 316 315 310 311 318 322 317 309 308 323 338 344 343 323 278 258 250 247 245 242 234 228 226 225 222 218 204 177 171 186 199 205 213 225 236 244 251 257 258 255 246 233 229 237 243 239 235 234 231 231 236 241 244 247 252 258 267 274 276 275 276 277 276 273 271 268 262 253 245 242 244 250 258 268 273 273 272 275 279 282 281 279 278 279
297 299 304 310 311 309 309 314 316 312 308 323 350 359 3 14 28 34 28 324 257 243 235 226 218 212 207 206 207 195 172 178 195 208 217 229 239 242 239 237 236 231 225 221 220 223 227 225 220 219 222 227 235 243 250 256 263 268 267 267 274 280 281 282 283 280 272 266 261 253 243 238 237 241 249 258 266 272 276 279 283 286 287 286 283 280 278
292 294 299 303 306 307 307 310 312 308 299 295 314 336 345 42 48 48 50 49 47 64 134 165 175 177 176 174 173 170 174 187 203 216 222 224 225 219 211 207 206 202 200 201 203 204 203 204 207 211 220 231 242 249 260 275 290 295 273 255 255 262 268 271 271 269 264 259 256 253 250 248 250 254 260 266 272 278 283 287 286 284 284 285 283 279 278
290 292 295 297 300 301 298 298 303 304 291 268 262 270 252 224 247 328 339 328 336 112 131 142 152 161 167 173 181 188 194 203 212 215 209 203 200 199 199 197 192 185 180 180 185 190 194 198 205 215 227 241 249 257 275 297 310 311 299 283 275 273 272 272 272 272 272 273 273 272 271 271 272 274 276 278 281 284 285 285 282 282 284 285 282 280 281
289 290 291 292 294 296 293 288 292 297 283 254 242 253 264 260 263 275 279 267 248 227 206 202 209 213 212 210 208 208 208 204 198 192 190 191 194 196 196 191 183 174 167 168 172 176 180 184 190 198 207 221 249 275 291 299 303 305 303 299 295 290 287 284 283 283 282 283 284 284 283 281 280 280 280 282 283 285 286 286 286 286 286 285 283 283 285
288 288 288 287 287 291 291 286 285 289 280 254 241 245 257 259 257 260 268 272 267 250 237 232 223 213 207 202 197 193 188 184 184 186 190 195 198 196 190 184 180 177 175 174 171 166 164 164 163 163 181 250 292 301 302 302 302 301 300 299 297 295 293 291 289 289 288 286 285 284 282 282 283 284 286 287 288 289 291 291 290 289 289 289 289 290 293
Height
1532 1530 1529 1529 1530 1531 1532 1534 1536 1539 1543 1545 1544 1539 1536 1537 1536 1530 1527 1529 1529 1523 1518 1517 1519 1520 1521 1522 1522 1524 1524 1525 1526 1527 1528 1529 1529 1530 1531 1532 1533 1533 1533 1534 1533 1533 1532 1531 1530 1530 1528 1527 1526 1524 1523 1521 1519 1517 1515 1513 1511 1510 1508 1507 1506 1505 1505 1504 1504 1504 1503 1503 1504 1503 1502 1502 1501 1500 1499 1498 1498 1497 1497 1497 1497 1498 1498
1531 1529 1529 1528 1528 1529 1529 1529 1530 1536 1542 1543 1543 1540 1538 1541 1539 1534 1532 1532 1529 1522 1517 1517 1519 1520 1521 1522 1523 1524 1524 1525 1525 1525 1526 1527 1527 1528 1529 1530 1532 1532 1533 1533 1532 1531 1531 1530 1530 1529 1528 1527 1525 1524 1523 1521 1519 1517 1515 1513 1511 1510 1508 1506 1506 1505 1505 1504 1504 1503 1503 1503 1503 1502 1502 1501 1500 1499 1498 1497 1496 1496 1496 1496 1496 1497 1497
1529 1528 1528 1528 1528 1528 1529 1528 1529 1538 1545 1545 1546 1546 1544 1544 1542 1538 1538 1538 1529 1518 1515 1517 1519 1520 1522 1522 1522 1523 1523 1523 1524 1524 1525 1525 1525 1526 1528 1529 1531 1531 1532 1531 1531 1530 1530 1530 1529 1528 1527 1526 1525 1524 1523 1521 1519 1517 1515 1513 1511 1510 1508 1507 1505 1505 1505 1504 1504 1503 1503 1503 1503 1502 1501 1500 1499 1498 1497 1496 1495 1495 1495 1495 1495 1496 1496
1530 1525 1527 1528 1526 1526 1528 1529 1531 1537 1542 1541 1540 1542 1541 1539 1538 1538 1539 1533 1520 1513 1514 1517 1518 1519 1520 1520 1520 1521 1522 1522 1523 1523 1523 1523 1524 1525 1527 1528 1530 1530 1530 1530 1530 1530 1529 1529 1528 1527 1527 1526 1525 1523 1522 1520 1519 1517 1515 1513 1511 1510 1509 1507 1506 1505 1505 1504 1504 1504 1504 1503 1502 1501 1500 1499 1499 1498 1497 1495 1494 1494 1494 1495 1495 1495 1495
1530 1524 1526 1527 1525 1527 1528 1526 1525 1528 1533 1535 1535 1535 1535 1534 1533 1533 1527 1518 1511 1512 1515 1515 1516 1517 1518 1518 1519 1520 1520 1521 1522 1522 1522 1522 1523 1525 1526 1527 1528 1529 1529 1530 1530 1529 1529 1528 1527 1527 1526 1525 1524 1523 1521 1520 1519 1517 1515 1513 1511 1510 1508 1507 1506 1505 1504 1504 1504 1504 1504 1503 1501 1501 1500 1499 1498 1496 1496 1495 1494 1494 1494 1494 1494 1494 1494
1530 1523 1523 1526 1529 1530 1526 1519 1517 1519 1523 1527 1529 1528 1527 1527 1526 1522 1515 1511 1511 1514 1514 1514 1514 1515 1516 1517 1518 1519 1519 1520 1520 1521 1522 1522 1523 1525 1526 1526 1527 1528 1529 1529 1529 1528 1528 1527 1527 1526 1525 1525 1524 1522 1521 1520 1518 1517 1515 1513 1511 1509 1508 1507 1506 1505 1504 1504 1504 1504 1503 1502 1502 1501 1499 1498 1496 1496 1495 1495 1494 1493 1493 1493 1493 1493 1493
1529 1522 1526 1535 1534 1525 1518 1516 1517 1518 1519 1520 1521 1519 1516 1517 1519 1517 1514 1512 1510 1511 1512 1513 1514 1515 1517 1518 1518 1519 1520 1520 1520 1520 1521 1522 1523 1524 1525 1526 1526 1527 1528 1528 1528 1528 1527 1527 1526 1525 1525 1524 1523 1522 1521 1519 1518 1517 1515 1513 1511 1509 1508 1507 1506 1505 1505 1504 1504 1503 1502 1502 1502 1501 1499 1497 1496 1495 1495 1495 1494 1493 1493 1493 1493 1492 1492
1527 1525 1533 1539 1529 1514 1512 1516 1518 1519 1519 1519 1520 1517 1511 1510 1513 1514 1512 1510 1508 1509 1511 1513 1514 1516 1517 1517 1517 1517 1519 1519 1520 1520 1520 1521 1522 1523 1524 1525 1526 1526 1527 1527 1528 1527 1527 1526 1525 1525 1524 1523 1522 1521 1520 1519 1518 1517 1515 1514 1512 1510 1509 1507 1506 1505 1505 1504 1504 1503 1502 1502 1502 1500 1498 1497 1496 1495 1495 1494 1494 1493 1493 1492 1492 1492 1491
1527 1527 1528 1526 1520 1514 1513 1514 1515 1516 1516 1516 1517 1516 1509 1505 1508 1510 1510 1508 1507 1508 1511 1512 1514 1516 1516 1515 1513 1513 1517 1518 1519 1519 1520 1521 1522 1522 1523 1524 1525 1525 1526 1526 1527 1526 1526 1525 1525 1524 1524 1523 1522 1521 1520 1519 1518 1517 1515 1514 1512 1510 1509 1508 1506 1505 1505 1505 1504 1504 1503 1502 1501 1500 1499 1498 1496 1495 1495 1494 1494 1493 1493 1492 1492 1491 1491
1526 1528 1527 1524 1526 1523 1514 1510 1511 1513 1513 1513 1513 1514 1509 1504 1506 1508 1508 1507 1506 1508 1510 1512 1513 1515 1515 1511 1508 1511 1515 1517 1518 1519 1519 1520 1521 1522 1522 1523 1524 1524 1525 1525 1526 1526 1525 1525 1524 1524 1523 1522 1521 1520 1519 1519 1518 1517 1515 1514 1512 1511 1510 1508 1507 1506 1505 1505 1505 1504 1503 1502 1501 1500 1499 1499 1497 1496 1496 1495 1494 1493 1493 1492 1492 1491 1490
1525 1528 1529 1527 1527 1522 1513 1511 1513 1513 1514 1514 1513 1514 1511 1505 1505 1508 1507 1507 1507 1508 1510 1512 1512 1513 1512 1507 1507 1512 1515 1516 1517 1518 1518 1519 1520 1521 1522 1522 1523 1524 1524 1524 1525 1525 1525 1524 1524 1523 1522 1522 1521 1520 1519 1518 1517 1516 1516 1514 1513 1512 1510 1509 1508 1507 1506 1505 1504 1504 1503 1502 1501 1500 1500 1499 1498 1497 1497 1496 1495 1494 1493 1493 1492 1491 1490
1523 1526 1526 1521 1518 1515 1513 1513 1513 1514 1515 1514 1517 1520 1514 1506 1505 1508 1507 1507 1508 1508 1510 1511 1511 1510 1509 1507 1509 1513 1514 1515 1517 1517 1518 1519 1519 1520 1521 1521 1522 1523 1523 1523 1524 1524 1524 1524 1523 1523 1522 1521 1521 1520 1519 1518 1517 1517 1516 1514 1513 1512 1511 1510 1509 1507 1506 1505 1504 1504 1503 1502 1502 1501 1500 1499 1498 1498 1498 1497 1495 1494 1493 1493 1493 1492 1491
1519 1524 1527 1523 1516 1514 1513 1514 1514 1515 1515 1517 1521 1521 1512 1505 1506 1508 1507 1508 1508 1509 1510 1510 1508 1508 1509 1510 1512 1514 1514 1516 1516 1516 1517 1518 1519 1520 1520 1520 1521 1522 1522 1523 1523 1523 1523 1523 1522 1522 1522 1521 1520 1519 1518 1518 1517 1516 1516 1515 1514 1513 1512 1511 1509 1508 1507 1506 1505 1504 1503 1502 1502 1502 1501 1499 1498 1498 1498 1497 1496 1494 1493 1494 1494 1493 1492
1518 1520 1526 1527 1521 1516 1516 1517 1517 1516 1516 1518 1518 1514 1508 1507 1508 1507 1507 1508 1507 1508 1510 1509 1509 1509 1510 1512 1513 1514 1515 1516 1516 1516 1517 1518 1518 1519 1519 1519 1520 1521 1522 1522 1522 1522 1522 1522 1522 1522 1521 1520 1520 1519 1518 1518 1517 1516 1516 1515 1514 1513 1512 1511 1510 1509 1507 1506 1505 1505 1504 1503 1503 1502 1501 1500 1499 1498 1498 1498 1497 1496 1495 1494 1495 1494 1494
1520 1521 1527 1530 1524 1517 1516 1517 1516 1516 1515 1514 1513 1510 1509 1509 1508 1507 1508 1508 1507 1508 1508 1509 1509 1510 1511 1512 1513 1513 1514 1515 1515 1516 1516 1517 1518 1518 1518 1519 1519 1520 1521 1521 1522 1522 1522 1521 1521 1521 1521 1520 1520 1519 1518 1518 1517 1517 1516 1515 1515 1514 1512 1511 1511 1509 1508 1507 1506 1505 1504 1504 1504 1503 1502 1501 1500 1499 1498 1498 1497 1497 1496 1496 1495 1495 1494
1519 1520 1520 1520 1517 1514 1515 1515 1513 1513 1512 1511 1511 1511 1509 1508 1508 1508 1508 1507 1507 1507 1507 1508 1509 1509 1510 1512 1512 1513 1514 1514 1514 1515 1515 1516 1517 1517 1518 1519 1519 1520 1521 1521 1521 1521 1521 1521 1521 1520 1520 1520 1519 1519 1518 1518 1517 1517 1516 1516 1515 1514 1512 1512 1511 1510 1509 1508 1507 1506 1506 1505 1504 1503 1502 1501 1501 1500 1499 1498 1498 1497 1497 1496 1496 1495 1494
1515 1514 1511 1509 1510 1512 1513 1513 1511 1511 1512 1511 1511 1510 1509 1508 1508 1507 1506 1506 1507 1507 1506 1507 1508 1508 1509 1510 1511 1512 1513 1513 1513 1514 1515 1515 1516 1517 1517 1518 1518 1519 1520 1520 1520 1520 1520 1520 1520 1520 1520 1519 1519 1519 1518 1518 1518 1517 1517 1516 1516 1514 1513 1512 1511 1511 1510 1509 1508 1507 1507 1506 1504 1503 1502 1502 1501 1500 1499 1499 1499 1498 1498 1497 1497 1496 1495
1512 1511 1509 1508 1510 1510 1510 1511 1511 1510 1511 1510 1509 1509 1508 1507 1506 1505 1505 1506 1506 1506 1506 1506 1506 1507 1508 1509 1510 1510 1511 1512 1513 1513 1514 1515 1515 1516 1516 1517 1517 1518 1519 1519 1519 1519 1519 1519 1519 1519 1519 1519 1518 1518 1518 1517 1517 1517 1517 1516 1516 1515 1514 1513 1512 1511 1510 1509 1509 1508 1507 1506 1505 1504 1503 1502 1501 1500 1500 1499 1499 1498 1498 1497 1496 1496 1495
1514 1512 1508 1507 1509 1509 1508 1509 1509 1508 1508 1508 1508 1507 1506 1505 1504 1504 1504 1504 1504 1505 1505 1504 1505 1506 1506 1507 1508 1509 1510 1511 1511 1512 1513 1513 1514 1515 1515 1516 1516 1517 1518 1518 1518 1518 1519 1518 1518 1518 1518 1518 1518 1518 1517 1517 1517 1517 1517 1516 1516 1515 1514 1513 1512 1512 1510 1510 1509 1509 1508 1507 1507 1506 1505 1504 1502 1501 1500 1499 1499 1498 1497 1497 1496 1496 1495
1512 1509 1505 1505 1507 1507 1507 1507 1506 1506 1506 1506 1505 1505 1504 1503 1503 1502 1502 1502 1503 1503 1503 1503 1504 1504 1505 1506 1507 1508 1509 1510 1510 1511 1512 1512 1513 1514 1514 1515 1515 1516 1517 1517 1517 1518 1518 1518 1518 1517 1517 1517 1517 1517 1516 1517 1517 1517 1516 1516 1515 1515 1514 1514 1513 1512 1511 1510 1510 1510 1509 1508 1507 1506 1505 1504 1503 1502 1500 1499 1499 1498 1498 1497 1496 1496 1495
1509 1505 1503 1502 1503 1503 1503 1503 1504 1504 1504 1504 1504 1503 1502 1501 1501 1500 1500 1500 1501 1501 1502 1502 1502 1503 1504 1504 1505 1506 1507 1508 1509 1509 1510 1511 1512 1512 1513 1513 1514 1515 1515 1516 1516 1517 1517 1517 1517 1516 1516 1516 1516 1516 1516 1516 1516 1516 1516 1515 1515 1515 1514 1514 1513 1513 1512 1511 1511 1510 1510 1509 1508 1506 1505 1505 1504 1503 1502 1501 1499 1498 1498 1497 1496 1496 1496
1506 1502 1501 1501 1503 1502 1500 1501 1502 1503 1503 1502 1502 1501 1500 1499 1498 1497 1497 1498 1499 1499 1500 1500 1501 1502 1502 1503 1504 1505 1506 1506 1507 1508 1509 1510 1510 1511 1512 1512 1512 1513 1514 1515 1515 1516 1516 1516 1516 1516 1516 1516 1515 1515 1515 1515 1515 1515 1515 1515 1515 1515 1514 1514 1513 1513 1513 1512 1511 1511 1510 1510 1509 1508 1506 1505 1505 1504 1503 1502 1500 1500 1499 1498 1497 1496 1496
1502 1501 1501 1502 1503 1502 1500 1501 1501 1501 1501 1501 1500 1499 1498 1497 1496 1495 1495 1496 1496 1497 1498 1499 1499 1500 1501 1501 1502 1503 1504 1505 1506 1507 1507 1508 1509 1509 1510 1510 1511 1512 1513 1513 1514 1514 1514 1515 1515 1515 1515 1515 1515 1515 1515 1514 1514 1514 1514 1514 1515 1514 1514 1514 1513 1512 1513 1512 1512 1511 1511 1510 1510 1509 1508 1507 1505 1504 1504 1502 1501 1500 1500 1499 1498 1497 1496
1503 1502 1503 1502 1502 1501 1500 1500 1499 1499 1499 1498 1497 1496 1496 1495 1494 1493 1493 1493 1494 1495 1496 1497 1497 1498 1499 1500 1501 1502 1503 1504 1505 1505 1506 1507 1507 1508 1509 1509 1510 1510 1511 1512 1512 1513 1513 1514 1514 1514 1514 1514 1514 1514 1514 1514 1513 1513 1513 1514 1514 1514 1514 1513 1512 1512 1512 1512 1512 1512 1511 1510 1510 1510 1509 1508 1507 1506 1505 1503 1502 1502 1501 1500 1499 1498 1497
1504 1503 1502 1502 1500 1500 1499 1498 1497 1497 1496 1496 1494 1494 1493 1493 1492 1491 1491 1491 1492 1493 1494 1495 1495 1496 1498 1498 1499 1500 1502 1502 1503 1504 1505 1505 1506 1507 1507 1508 1508 1509 1510 1510 1511 1511 1512 1512 1513 1513 1513 1513 1513 1513 1513 1513 1513 1513 1513 1513 1513 1513 1513 1513 1512 1512 1512 1512 1512 1511 1511 1511 1510 1510 1510 1509 1508 1507 1506 1505 1504 1503 1502 1501 1500 1499 1498
1502 1502 1501 1500 1498 1497 1497 1496 1494 1494 1493 1493 1492 1491 1491 1490 1490 1489 1489 1489 1490 1492 1493 1493 1494 1494 1495 1497 1498 1499 1500 1501 1502 1502 1503 1504 1504 1505 1506 1507 1507 1508 1508 1509 1509 1510 1511 1511 1511 1512 1512 1512 1512 1512 1512 1513 1512 1512 1512 1512 1512 1512 1512 1511 1512 1512 1512 1512 1512 1511 1511 1510 1510 1510 1509 1509 1508 1508 1507 1506 1505 1504 1503 1502 1501 1500 1499
1499 1499 1498 1497 1495 1494 1494 1492 1491 1491 1491 1490 1490 1489 1488 1488 1487 1487 1486 1487 1488 1489 1491 1492 1492 1493 1493 1495 1496 1497 1498 1499 1500 1501 1502 1503 1503 1504 1504 1505 1506 1506 1507 1508 1508 1509 1509 1509 1510 1510 1510 1511 1511 1511 1511 1512 1511 1511 1511 1511 1511 1511 1510 1510 1510 1511 1512 1511 1511 1511 1511 1510 1510 1510 1509 1508 1508 1508 1508 1507 1506 1506 1505 1503 1502 1501 1500
1496 1495 1495 1494 1492 1491 1490 1490 1489 1488 1488 1487 1487 1487 1486 1485 1485 1485 1485 1485 1486 1487 1488 1489 1490 1491 1491 1493 1494 1495 1496 1497 1498 1499 1500 1501 1502 1502 1503 1504 1504 1505 1505 1506 1507 1507 1507 1508 1508 1509 1509 1510 1510 1510 1510 1510 1510 1510 1510 1510 1510 1511 1510 1509 1509 1510 1511 1511 1510 1510 1510 1510 1510 1509 1509 1509 1508 1508 1508 1507 1507 1507 1506 1505 1503 1502 1501
1492 1492 1491 1490 1489 1488 1488 1487 1486 1485 1484 1484 1484 1484 1484 1483 1483 1483 1483 1483 1484 1484 1485 1486 1488 1489 1489 1491 1492 1493 1494 1495 1496 1498 1499 1499 1500 1501 1501 1502 1503 1503 1504 1504 1505 1505 1506 1506 1507 1507 1508 1508 1509 1509 1509 1509 1509 1509 1509 1509 1510 1510 1510 1510 1510 1510 1510 1510 1509 1509 1508 1508 1509 1509 1509 1509 1508 1508 1508 1508 1507 1506 1506 1506 1504 1503 1502
1489 1489 1488 1487 1486 1485 1484 1483 1482 1481 1481 1481 1481 1481 1481 1481 1481 1480 1481 1481 1482 1482 1483 1484 1485 1486 1488 1489 1489 1491 1492 1493 1495 1496 1497 1498 1499 1499 1500 1500 1501 1501 1502 1502 1503 1504 1504 1505 1505 1506 1506 1507 1507 1507 1507 1508 1508 1508 1508 1508 1508 1509 1509 1509 1509 1509 1510 1509 1509 1508 1508 1508 1509 1509 1509 1509 1508 1508 1508 1508 1507 1506 1506 1505 1505 1504 1503
1487 1486 1485 1483 1483 1482 1481 1480 1479 1478 1478 1478 1478 1479 1478 1478 1478 1478 1478 1479 1479 1480 1481 1482 1483 1484 1485 1486 1487 1489 1490 1492 1493 1494 1495 1496 1497 1498 1498 1498 1499 1500 1500 1501 1501 1502 1503 1503 1504 1504 1505 1505 1506 1506 1506 1506 1507 1507 1507 1507 1507 1507 1507 1507 1507 1508 1509 1509 1508 1508 1508 1508 1509 1508 1508 1508 1508 1508 1508 1507 1507 1506 1506 1505 1505 1504 1503
1485 1482 1481 1480 1479 1478 1477 1477 1476 1476 1475 1475 1475 1475 1475 1475 1475 1475 1475 1476 1477 1477 1479 1480 1481 1482 1483 1484 1485 1487 1488 1490 1491 1492 1493 1494 1495 1495 1496 1496 1497 1498 1499 1500 1501 1501 1501 1502 1502 1503 1503 1504 1504 1504 1504 1505 1505 1506 1506 1506 1506 1506 1505 1505 1506 1506 1507 1507 1508 1508 1508 1508 1508 1508 1508 1508 1508 1507 1507 1507 1507 1506 1506 1505 1505 1504 1502
1483 1480 1479 1477 1477 1476 1476 1475 1474 1474 1473 1473 1472 1472 1473 1473 1473 1472 1473 1473 1474 1474 1476 1477 1478 1480 1481 1482 1483 1485 1486 1487 1489 1490 1491 1492 1493 1493 1494 1494 1495 1496 1497 1498 1499 1499 1500 1500 1501 1501 1502 1502 1502 1502 1503 1503 1504 1505 1505 1505 1505 1505 1504 1504 1504 1505 1505 1506 1506 1507 1507 1507 1507 1507 1507 1507 1507 1507 1507 1506 1506 1505 1505 1504 1504 1503 1501
1482 1480 1478 1476 1476 1475 1474 1473 1472 1471 1471 1471 1470 1470 1470 1470 1470 1470 1471 1471 1471 1471 1472 1474 1475 1477 1479 1480 1481 1482 1484 1485 1486 1486 1487 1489 1490 1491 1492 1492 1493 1494 1495 1495 1496 1497 1498 1498 1499 1499 1500 1500 1500 1500 1501 1501 1502 1503 1504 1504 1504 1504 1503 1503 1503 1504 1504 1505 1505 1505 1506 1506 1506 1506 1506 1506 1506 1506 1506 1505 1505 1504 1504 1503 1503 1502 1500
1480 1479 1477 1475 1474 1473 1472 1471 1470 1469 1469 1469 1468 1468 1468 1468 1468 1468 1468 1468 1468 1469 1469 1471 1472 1474 1476 1477 1478 1479 1480 1481 1482 1483 1485 1486 1487 1488 1489 1490 1491 1492 1492 1493 1493 1494 1495 1496 1497 1497 1498 1498 1498 1498 1498 1499 1501 1501 1502 1502 1502 1503 1503 1502 1502 1502 1503 1504 1504 1504 1505 1505 1505 1505 1505 1505 1505 1504 1504 1504 1504 1503 1503 1502 1502 1501 1499
1479 1477 1476 1474 1473 1471 1470 1469 1468 1467 1467 1466 1466 1466 1466 1466 1466 1465 1465 1465 1465 1466 1467 1468 1469 1471 1473 1473 1474 1476 1477 1478 1479 1481 1482 1483 1485 1486 1487 1487 1488 1489 1489 1490 1490 1492 1493 1494 1494 1495 1495 1496 1496 1496 1496 1497 1498 1499 1500 1500 1501 1501 1501 1501 1501 1501 1502 1502 1503 1503 1503 1503 1503 1503 1503 1503 1503 1503 1503 1503 1503 1502 1502 1501 1501 1500 1499
1477 1476 1475 1473 1472 1470 1469 1468 1467 1466 1465 1464 1464 1464 1464 1464 1464 1463 1463 1463 1463 1463 1464 1465 1466 1467 1468 1469 1470 1472 1473 1474 1476 1478 1479 1481 1482 1483 1484 1484 1485 1486 1486 1486 1487 1489 1490 1491 1491 1492 1493 1493 1493 1494 1494 1495 1496 1497 1498 1499 1499 1499 1500 1500 1500 1500 1500 1501 1501 1501 1501 1501 1502 1502 1501 1501 1502 1502 1502 1502 1501 1501 1501 1500 1499 1499 1498
1476 1475 1474 1472 1471 1469 1468 1466 1465 1464 1463 1462 1462 1461 1461 1461 1461 1461 1460 1460 1461 1461 1462 1462 1462 1463 1464 1466 1467 1468 1469 1471 1473 1474 1476 1478 1479 1480 1481 1481 1482 1483 1483 1483 1485 1486 1487 1488 1489 1490 1490 1490 1491 1491 1492 1493 1494 1495 1496 1496 1497 1497 1498 1498 1499 1499 1499 1500 1500 1500 1500 1500 1500 1501 1501 1500 1500 1500 1500 1500 1500 1499 1499 1498 1498 1497 1496
1474 1473 1472 1470 1469 1468 1466 1465 1463 1462 1461 1460 1459 1459 1458 1458 1458 1458 1458 1458 1459 1459 1459 1459 1459 1460 1461 1462 1463 1464 1466 1467 1469 1471 1473 1474 1475 1476 1477 1478 1479 1479 1480 1481 1482 1483 1484 1485 1486 1486 1487 1488 1488 1489 1489 1490 1491 1492 1493 1493 1494 1495 1495 1496 1496 1497 1497 1498 1498 1498 1499 1499 1499 1499 1499 1499 1499 1499 1498 1498 1498 1497 1497 1497 1496 1496 1495
1472 1471 1470 1469 1467 1466 1465 1463 1462 1461 1459 1458 1457 1456 1455 1455 1455 1455 1455 1456 1456 1456 1455 1455 1455 1456 1457 1458 1460 1461 1463 1464 1465 1467 1469 1471 1472 1473 1474 1475 1476 1476 1477 1478 1480 1480 1481 1481 1482 1483 1484 1485 1485 1486 1486 1487 1488 1489 1490 1490 1491 1492 1493 1493 1493 1494 1495 1495 1496 1496 1496 1496 1497 1496 1496 1496 1496 1497 1496 1496 1496 1496 1496 1495 1495 1494 1494
1471 1470 1468 1467 1466 1464 1463 1461 1460 1458 1457 1456 1455 1453 1453 1452 1452 1452 1452 1452 1452 1452 1452 1452 1452 1452 1453 1455 1457 1458 1459 1460 1462 1464 1466 1467 1468 1470 1471 1471 1472 1473 1474 1475 1476 1476 1477 1478 1479 1480 1480 1481 1482 1482 1483 1484 1485 1486 1487 1487 1488 1489 1490 1490 1491 1491 1492 1493 1493 1493 1493 1494 1494 1494 1494 1494 1494 1494 1494 1493 1493 1494 1494 1493 1492 1492 1492
1470 1469 1467 1466 1464 1463 1461 1459 1458 1456 1455 1453 1452 1451 1450 1449 1448 1448 1449 1449 1449 1449 1449 1449 1449 1449 1450 1452 1454 1455 1456 1457 1459 1461 1462 1463 1465 1466 1468 1468 1469 1469 1471 1472 1472 1473 1474 1475 1475 1476 1477 1478 1478 1479 1480 1481 1482 1483 1484 1485 1485 1486 1487 1487 1488 1488 1489 1490 1490 1490 1490 1491 1491 1491 1491 1491 1491 1490 1490 1490 1490 1490 1491 1490 1490 1489 1489
1468 1467 1465 1464 1463 1461 1459 1457 1456 1454 1452 1451 1449 1448 1447 1446 1446 1446 1446 1446 1445 1445 1446 1447 1447 1447 1448 1449 1450 1451 1452 1453 1455 1456 1458 1459 1461 1463 1464 1464 1465 1466 1468 1469 1469 1470 1472 1472 1473 1473 1473 1474 1475 1475 1476 1478 1478 1479 1481 1482 1482 1483 1484 1485 1485 1485 1486 1486 1486 1487 1487 1487 1487 1487 1488 1488 1487 1487 1487 1487 1487 1487 1487 1487 1487 1487 1486
1466 1465 1464 1462 1461 1459 1457 1455 1453 1452 1450 1448 1446 1445 1443 1443 1443 1443 1443 1443 1442 1441 1442 1444 1445 1445 1445 1445 1446 1448 1449 1450 1451 1453 1454 1456 1457 1458 1459 1461 1462 1464 1465 1466 1467 1468 1469 1470 1470 1470 1470 1471 1471 1472 1473 1474 1475 1476 1477 1478 1479 1480 1481 1482 1482 1482 1483 1483 1483 1483 1483 1484 1484 1484 1485 1484 1483 1483 1484 1484 1484 1484 1485 1485 1484 1484 1483
1464 1463 1462 1460 1459 1457 1455 1453 1451 1449 1447 1445 1443 1441 1440 1439 1439 1439 1440 1440 1439 1439 1439 1440 1440 1440 1441 1442 1444 1445 1446 1447 1449 1450 1451 1453 1454 1455 1456 1458 1460 1462 1463 1464 1464 1465 1466 1467 1467 1467 1468 1468 1469 1469 1470 1471 1472 1473 1474 1475 1476 1476 1477 1478 1478 1478 1479 1479 1479 1479 1480 1480 1481 1481 1481 1481 1480 1480 1481 1481 1481 1481 1481 1481 1481 1480 1480
1462 1461 1460 1458 1456 1455 1453 1451 1449 1447 1444 1442 1441 1439 1438 1437 1436 1436 1436 1436 1436 1436 1436 1437 1437 1437 1438 1440 1440 1441 1442 1445 1447 1448 1449 1450 1451 1453 1455 1456 1458 1459 1461 1462 1462 1463 1463 1464 1464 1465 1465 1466 1467 1467 1468 1469 1470 1471 1472 1472 1473 1473 1474 1474 1474 1474 1475 1475 1475 1475 1476 1477 1477 1478 1478 1478 1477 1477 1477 1477 1477 1477 1477 1476 1476 1476 1476
1459 1458 1457 1456 1454 1453 1451 1449 1447 1445 1443 1442 1440 1439 1437 1436 1434 1433 1433 1433 1433 1433 1433 1434 1435 1435 1436 1437 1438 1439 1441 1443 1445 1447 1448 1449 1450 1452 1453 1455 1456 1457 1458 1459 1460 1460 1461 1461 1462 1463 1463 1464 1465 1466 1466 1467 1468 1469 1469 1470 1470 1470 1471 1471 1471 1471 1471 1471 1471 1471 1472 1473 1473 1474 1474 1474 1474 1474 1474 1474 1473 1473 1473 1472 1472 1472 1472
1457 1456 1455 1454 1452 1450 1449 1447 1446 1445 1443 1442 1440 1439 1438 1437 1435 1434 1433 1433 1432 1432 1431 1432 1432 1433 1435 1436 1438 1439 1440 1442 1444 1445 1446 1447 1448 1450 1451 1452 1453 1454 1455 1456 1457 1458 1459 1459 1460 1461 1462 1463 1464 1464 1465 1465 1466 1467 1467 1467 1468 1468 1468 1468 1468 1468 1468 1468 1468 1468 1468 1469 1470 1470 1470 1471 1471 1471 1471 1470 1470 1469 1469 1469 1469 1469 1469
1454 1453 1452 1451 1450 1448 1447 1446 1445 1443 1443 1442 1441 1440 1439 1438 1437 1436 1435 1435 1434 1433 1433 1433 1433 1434 1435 1436 1437 1439 1440 1441 1443 1444 1445 1446 1447 1448 1449 1450 1451 1452 1453 1454 1455 1456 1457 1458 1458 1459 1460 1461 1462 1463 1463 1464 1464 1465 1465 1466 1466 1466 1466 1466 1466 1466 1466 1466 1466 1466 1467 1467 1467 1467 1468 1468 1468 1467 1467 1467 1466 1466 1466 1466 1465 1465 1465
1451 1451 1450 1449 1448 1446 1445 1444 1443 1442 1441 1441 1441 1440 1440 1439 1438 1437 1437 1436 1436 1435 1435 1435 1435 1435 1436 1437 1437 1438 1439 1440 1441 1442 1443 1444 1446 1447 1448 1449 1450 1451 1452 1453 1454 1455 1456 1456 1457 1458 1459 1459 1460 1461 1462 1462 1462 1463 1464 1464 1464 1464 1464 1464 1464 1464 1464 1464 1464 1465 1465 1465 1465 1465 1465 1465 1464 1464 1464 1464 1463 1462 1462 1462 1462 1461 1460
1448 1448 1447 1446 1445 1444 1443 1442 1441 1440 1439 1438 1439 1439 1439 1438 1437 1437 1437 1437 1437 1436 1436 1436 1436 1435 1436 1436 1437 1437 1438 1439 1440 1441 1442 1443 1444 1446 1447 1448 1449 1450 1451 1452 1453 1453 1454 1455 1456 1457 1458 1458 1459 1459 1460 1461 1461 1461 1461 1461 1462 1462 1462 1462 1462 1462 1462 1462 1462 1462 1462 1462 1462 1462 1462 1462 1461 1461 1461 1460 1460 1459 1459 1458 1457 1456 1455
1445 1445 1444 1443 1442 1441 1440 1439 1438 1438 1437 1437 1436 1437 1437 1436 1436 1435 1435 1435 1435 1435 1435 1435 1435 1434 1435 1435 1435 1436 1437 1438 1439 1440 1441 1442 1444 1445 1446 1447 1448 1449 1450 1451 1451 1452 1453 1454 1455 1456 1456 1457 1457 1458 1459 1459 1459 1459 1459 1459 1459 1459 1459 1460 1460 1460 1460 1460 1459 1459 1459 1459 1460 1459 1459 1459 1458 1458 1457 1457 1456 1455 1454 1453 1452 1451 1450